User: anonymous   Login
Location: Unspecified
(0.0000°N, 0.0000°E)
Time: 10:44:42
(UTC+00:00)
Language:

ELEKTRO-L - Orbit

View from above orbital plane
View from above orbital plane
View from above satellite
View from above satellite

Ground track
Ground track

The orbit data is extracted from the following two-line orbital elements,

1 37344U 11001A   16205.77857662  .00000115  00000-0  00000+0 0  9992
2 37344   1.7742  79.2886 0034466  81.5607 116.2202  0.99711227 20211
Epoch (UTC): 23 July 2016 18:41:09
Eccentricity: 0.0034466
inclination: 1.7742°
perigee height: 35798 km
apogee height: 36090 km
right ascension of ascending node: 79.2886°
argument of perigee: 81.5607°
revolutions per day: 0.99711227
mean anomaly at epoch: 116.2202°
orbit number at epoch: 2021

The dashed part of the orbit path shows where the satellite is in the earth's shadow,  

DLR